Other Public Products
Issued by NWS Charleston, SC

Current Version | Previous Version | Text Only | Print | Product List | Glossary Off
Versions: 1 2 3 4 5 6 7 8 9 10 11 12 13 14 15 16 17 18 19 20 21 22 23 24 25 26 27 28 29 30 31 32 33 34 35 36 37 38 39 40 41 42 43 44 45 46 47 48 49 50
000 FPUS82 KCHS 260312 OPUCHS TEST...KCHS/KSAV Gateway Observations...TEST National Weather Service Charleston SC 1100 PM EDT WED APR 25 2018 NOTE: "fair" indicates few or no clouds below 12,000 feet with no significant weather and/or obstructions to visibility. SCZ050-WAZ558-NCZ071-TXZ119-213-PAZ071-DCZ001-FLZ074-172-MI076- NYZ176-178-MAZ016-IL014-TNZ027-NJZ106-GAZ044-MD014-260400- ...Gateway Observations for Charleston International... CITY SKY/WX TMP DP RH WIND PRES REMARKS Chas Airport FAIR 66 56 70 W6 29.85S Seattle MOCLDY 67 42 40 N10 30.04F Charlotte FAIR 61 51 70 NW3 29.85F Dallas DFW PTCLDY 53 49 86 W10 30.10S Dallas Love PTCLDY 53 50 89 W5 30.11S Philladelphia CLOUDY 62 58 86 NW7 29.67F Wash National MOCLDY 62 57 83 W5 29.74R Baltimore FAIR 57 57 100 W5 29.72S Miami FAIR 72 63 73 W7 29.95R Detroit FAIR 47 36 65 N6 29.96S Newark CLOUDY 56 55 97 E3 29.65F FOG Laguardia FOG 54 52 93 NE3 29.66F VSB 3/4 J F K FOG 52 52 100 SW3 29.67F VSB 1/4 Boston Logan LGT RAIN 50 49 96 E7 29.71F FOG Ft. Lauderdale FAIR 75 63 66 W9G18 29.93R Chicago O`Hare FAIR 41 28 60 NE3 30.03F Chicago Midway FAIR 42 30 62 NE6 30.03F Houston Bush CLOUDY 70 56 61 NW18G24 30.02R Houston Hobby CLOUDY 74 61 63 N10 29.98S Nashville CLOUDY 63 52 67 CALM 29.94S Atlanta FAIR 59 50 72 NW8 29.92S $$ GAZ044-118-TXZ119-213-NCZ071-DCZ001-MDZ014-506-PAZ021-071-NJZ106- NYZ176-178-MAZ106-OHZ011-021-055-MIZ076-KYZ091-ILZ014-INZ047- MNZ060-ONZ431-260400- ...Gateway Observations for Savannah International... CITY SKY/WX TMP DP RH WIND PRES REMARKS Savannah Arpt FAIR 64 55 72 W7 29.89S Atlanta FAIR 59 50 72 NW8 29.92S Charlotte FAIR 61 51 70 NW3 29.85F Dallas DFW PTCLDY 53 49 86 W10 30.10S Houston Bush CLOUDY 70 56 61 NW18G24 30.02R Wash National MOCLDY 62 57 83 W5 29.74R Wash Dulles FAIR 58 53 84 NW7 29.75R Baltimore FAIR 57 57 100 W5 29.72S Philadelphia CLOUDY 62 58 86 NW7 29.67F Newark CLOUDY 56 55 97 E3 29.65F FOG Laguardia FOG 54 52 93 NE3 29.66F VSB 3/4 J F K FOG 52 52 100 SW3 29.67F VSB 1/4 Boston LGT RAIN 50 49 96 E7 29.71F FOG Pittsburg MOCLDY 46 39 76 NW10 29.91S Akron FAIR 40 35 83 N6 29.94S WCI 36 Cleveland CLOUDY 43 38 82 N9 29.99S Cincinnati CLOUDY 54 42 64 NW6 29.93S Columbus FAIR 48 43 84 CALM 29.91F Detroit FAIR 47 36 65 N6 29.96S Chicago O`Hare FAIR 41 28 60 NE3 30.03F Minneapolis CLOUDY 53 32 44 W6 30.00S Indianapolis MOCLDY 49 30 48 N12 29.98S Toronto Canada MOCLDY 39 36 87 NW18G24 29.79F WCI 30 $$

USA.gov is the U.S. government's official web portal to all federal, state and local government web resources and services.